Location: Champs
(48.8539°N, 2.6040°E)
Time: 10:47:31
(UTC+00:00)

USA 308 - Pass Details

Date: 31 May 2022
Orbit: 549 x 558 km, 54.0° (Epoch: 14 June)

Event Time Altitude Azimuth Distance (km) Brightness Sun altitude
Exits shadow 00:19:14 17° 256° (WSW) 1,466 4.8 -18.9°
Maximum altitude 00:22:26 67° 338° (NNW) 606 3.1 -18.8°
Drops below altitude 10° 00:26:41 10° 61° (ENE) 1,879 6.0 -18.7°
Sets 00:28:53 0° 64° (ENE) 2,748 6.9 -18.7°
